• Join FlightAware (Why Join?)
  • Login
  • US Flag 
11:59AM EST


 

Airport Tracker/Info


-or-


 

Live Flight TrackerFlight Track Log ✈ CES2376 ✈ 26-Oct-2013 ✈ ZLGM / GOQ - ZLXY / XIY

Flight Track Log - Related Links

Times and Time Zones

All times are in EDT time to prevent confusion due to time zone crossing. See the CES2376 flight status page for this flight to view local times or setup timezone preferences in your user account.

Time Position Orientation Groundspeed Altitude Reporting Facility
EDT Latitude Longitude Course Direction KTS MPH feet Rate Location/Type
03:46AM 36.1085 97.9296 96° East  Level Estimated
03:47AM 36.0940 98.0657 97° East  Level Estimated
03:48AM 36.0793 98.2018 98° East  Level Estimated
03:49AM 36.0645 98.3378 98° East  Level Estimated
03:50AM 36.0495 98.4738 98° East  Level Estimated
03:51AM 36.0343 98.6097 98° East  Level Estimated
03:52AM 36.0190 98.7455 98° East  Level Estimated
03:53AM 36.0036 98.8813 98° East  Level Estimated
03:54AM 35.9880 99.0171 98° East  Level Estimated
03:55AM 35.9722 99.1528 98° East  Level Estimated
03:56AM 35.9563 99.2884 98° East  Level Estimated
03:57AM 35.9402 99.4240 98° East  Level Estimated
03:58AM 35.9240 99.5596 98° East  Level Estimated
03:59AM 35.9076 99.6950 98° East  Level Estimated
04:00AM 35.8911 99.8305 99° East  Level Estimated
04:01AM 35.8744 99.9658 99° East  Level Estimated
04:02AM 35.8576 100.1011 99° East  Level Estimated
04:03AM 35.8406 100.2364 99° East  Level Estimated
04:04AM 35.8235 100.3716 99° East  Level Estimated
04:05AM 35.8062 100.5067 99° East  Level Estimated
04:06AM 35.7888 100.6418 99° East  Level Estimated
04:07AM 35.7712 100.7768 99° East  Level Estimated
04:08AM 35.7535 100.9117 99° East  Level Estimated
04:09AM 35.7356 101.0466 99° East  Level Estimated
04:10AM 35.7176 101.1814 99° East  Level Estimated
04:11AM 35.6994 101.3162 99° East  Level Estimated
04:12AM 35.6811 101.4509 99° East  Level Estimated
04:13AM 35.6626 101.5856 100° East  Level Estimated
04:14AM 35.6440 101.7202 100° East  Level Estimated
04:15AM 35.6252 101.8547 100° East  Level Estimated
04:16AM 35.6062 101.9892 100° East  Level Estimated
04:17AM 35.5872 102.1235 100° East  Level Estimated
04:18AM 35.5679 102.2579 100° East  Level Estimated
04:19AM 35.5485 102.3921 100° East  Level Estimated
04:20AM 35.5290 102.5263 100° East  Level Estimated
04:21AM 35.5093 102.6605 100° East  Level Estimated
04:22AM 35.4895 102.7945 100° East  Level Estimated
04:23AM 35.4695 102.9286 100° East  Level Estimated
04:24AM 35.4494 103.0625 100° East  Level Estimated
04:25AM 35.4291 103.1964 100° East  Level Estimated
04:26AM 35.4087 103.3302 101° East  Level Estimated
04:27AM 35.3881 103.4639 101° East  Level Estimated
04:28AM 35.3674 103.5975 101° East  Level Estimated
04:29AM 35.3466 103.7311 101° East  Level Estimated
04:30AM 35.3256 103.8647 101° East  Level Estimated
04:31AM 35.3044 103.9981 101° East  Level Estimated
04:32AM 35.2831 104.1315 101° East  Level Estimated
04:33AM 35.2617 104.2648 101° East  Level Estimated
04:34AM 35.2401 104.3981 101° East  Level Estimated
04:35AM 35.2183 104.5313 101° East  Level Estimated
04:36AM 35.1964 104.6644 101° East  Level Estimated
04:37AM 35.1744 104.7974 101° East  Level Estimated
04:38AM 35.1522 104.9304 101° East  Level Estimated
04:39AM 35.1299 105.0632 102° East  Level Estimated
04:40AM 35.1074 105.1961 102° East  Level Estimated
04:41AM 35.0848 105.3288 102° East  Level Estimated
04:42AM 35.0621 105.4615 102° East  Level Estimated
04:43AM 35.0392 105.5941 102° East  Level Estimated
04:44AM 35.0161 105.7266 102° East  Level Estimated
04:45AM 34.9930 105.8590 102° East  Level Estimated
04:46AM 34.9696 105.9914 102° East  Level Estimated
04:47AM 34.9461 106.1237 102° East  Level Estimated
04:48AM 34.9225 106.2559 102° East  Level Estimated
04:49AM 34.8988 106.3880 102° East  Level Estimated
04:50AM 34.8749 106.5201 102° East  Level Estimated
04:51AM 34.8508 106.6521 102° East  Level Estimated
04:52AM 34.8266 106.7840 103° East  Level Estimated
04:53AM 34.8023 106.9158 103° East  Level Estimated
04:54AM 34.7778 107.0476 103° East  Level Estimated
04:55AM 34.7532 107.1793 103° East  Level Estimated
04:56AM 34.7284 107.3109 103° East  Level Estimated
04:57AM 34.7035 107.4424 103° East  Level Estimated
04:58AM 34.6785 107.5738 103° East  Level Estimated
04:59AM 34.6533 107.7052 103° East  Level Estimated
05:00AM 34.6280 107.8364 103° East  Level Estimated
05:01AM 34.6025 107.9677 103° East  Level Estimated
05:02AM 34.5769 108.0988 103° East  Level Estimated
05:03AM 34.5512 108.2298 103° East  Level Estimated
05:04AM 34.5253 108.3607 103° East  Level Estimated
05:05AM 34.4993 108.4916 104° East  Level Estimated
05:06AM 34.4731 108.6224 104° East  Level Estimated
05:07AM 34.4471 108.7516 104° East  Level Estimated
05:08AM 34.4471 108.7516 121° Southeast  Level Estimated
05:09AM 34.4471 108.7516 121° Southeast  Level Estimated
05:10AM 34.4471 108.7516 121° Southeast  Level Estimated
05:11AM 34.4471 108.7516 121° Southeast  Level Estimated
05:12AM 34.4471 108.7516 121° Southeast  Level Estimated
05:13AM 34.4471 108.7516 121° Southeast  Level Estimated
05:14AM 34.4471 108.7516 121° Southeast  Level Estimated
05:15AM 34.4471 108.7516 121° Southeast  Level Estimated
05:16AM 34.4471 108.7516 121° Southeast  Level Estimated
05:17AM 34.4471 108.7516 121° Southeast  Level Estimated
05:18AM 34.4471 108.7516 121° Southeast  Level Estimated
05:19AM 34.4471 108.7516 121° Southeast  Level Estimated
05:20AM 34.4471 108.7516 121° Southeast  Level Estimated
05:21AM 34.4471 108.7516 121° Southeast  Level Estimated